Tracking 23610 objects as of 20-Sep-2021
HD Live streaming from Space Station
objects crossing your sky now

STARLINK-1337

Track STARLINK-1337 now!
10-day predictions
STARLINK-1337 is classified as:


NORAD ID: 45582
Int'l Code: 2020-025BD
Perigee: 553.0 km
Apogee: 555.7 km
Inclination: 53.1 °
Period: 95.6 minutes
Semi major axis: 6925 km
RCS: Unknown
Launch date: April 22, 2020
Source: United States (US)
Launch site: AIR FORCE EASTERN TEST RANGE (AFETR)
aabbcc
Your satellite tracking list
Your tracking list is empty




NASA's NSSDC Master Catalog

Two Line Element Set (TLE):
1 45582U 20025BD  21263.08245813 -.00000490  00000-0 -13994-4 0  9993
2 45582  53.0550 201.1970 0001985  67.3321 292.7877 15.06393563 78984
Source of the keplerian elements: AFSPC